Location: Nakusp
(50.2330°N, 117.8000°W)
Time: 06:43:41
(UTC-07:00)

Cosmos 1939 Rocket - Visible Passes

Search period start: 16 April 2014 00:00
Search period end: 26 April 2014 00:00
Orbit: 545 x 593 km, 97.7° (Epoch: 15 April)

Date Brightness Start Highest point End Pass type
(mag) Time Alt. Az. Time Alt. Az. Time Alt. Az.
16 Apr 3.8 20:37:10 10° SE 20:40:50 33° ENE 20:44:34 10° N visible
16 Apr 4.7 22:13:13 14° SSW 22:15:59 27° W 22:19:33 10° NW visible
17 Apr 3.7 20:38:42 10° SE 20:42:24 35° ENE 20:46:11 10° N visible
17 Apr 4.8 22:14:42 13° SSW 22:17:35 27° W 22:21:06 10° NW visible
18 Apr 3.7 20:40:14 10° SE 20:43:58 36° ENE 20:47:47 10° N visible
18 Apr 4.8 22:16:12 12° SSW 22:19:10 26° W 22:22:39 10° NW visible
19 Apr 3.6 20:41:45 10° SE 20:45:32 37° ENE 20:49:22 10° N visible
19 Apr 4.9 22:17:42 12° SSW 22:20:45 25° W 22:24:12 10° NW visible
20 Apr 3.6 20:43:17 10° SE 20:47:05 38° ENE 20:50:58 10° N visible
20 Apr 4.9 22:19:11 11° SW 22:22:20 24° W 22:25:44 10° NW visible
21 Apr 3.6 20:44:49 10° SE 20:48:39 40° ENE 20:52:33 10° N visible
21 Apr 5.0 22:20:41 10° SW 22:23:54 23° W 22:27:16 10° NW visible
22 Apr 3.5 20:46:20 10° SE 20:50:12 41° ENE 20:54:08 10° N visible
22 Apr 5.0 22:22:13 10° SW 22:25:29 23° W 22:28:48 10° NW visible
23 Apr 3.5 20:47:51 10° SE 20:51:45 43° ENE 20:55:43 10° N visible
23 Apr 5.1 22:23:50 10° SW 22:27:03 22° W 22:30:20 10° NW visible
24 Apr 3.4 20:49:23 10° SE 20:53:18 44° ENE 20:57:18 10° N visible
24 Apr 5.1 22:25:27 10° SW 22:28:37 21° W 22:31:51 10° NW visible
25 Apr 3.4 20:50:54 10° SE 20:54:51 46° ENE 20:58:52 10° N visible
25 Apr 5.2 22:27:04 10° SW 22:30:11 21° W 22:33:22 10° NW visible
